Location: Recife
(8.0585°S, 34.8848°W)
Time: 12:39:11
(UTC-03:00)

Tiros 1 - Pass Details

Date: 23 April 2026
Orbit: 618 x 648 km, 48.4° (Epoch: 11 May)

Event Time Altitude Azimuth Distance (km) Brightness Sun altitude
Rises 17:07:57 0° 302° (WNW) 2,936 12.2 0.6°
Reaches altitude 10° 17:10:27 10° 292° (WNW) 2,034 11.8 0.0°
Maximum altitude 17:14:39 32° 229° (SW) 1,104 8.8 -1.0°
Drops below altitude 10° 17:18:53 10° 165° (SSE) 2,049 9.5 -2.0°
Sets 17:21:26 0° 155° (SSE) 2,962 10.2 -2.6°
